Location: ??????
(38.3573°N, 22.9424°E)
Time: 08:47:11
(UTC+00:00)

Daily predictions for brighter satellites

Satellite Brightness Start Highest point End
(mag) Time Altitude Azimuth Time Altitude Azimuth Time Altitude Azimuth
Cosmos 1814 Rocket 4.5 15:29:33 10° NNW 15:34:52 70° WSW 15:40:08 10° S
Cosmos 1743 4.1 15:35:39 10° NE 15:37:21 13° ENE 15:39:03 10° ESE
SMAP 3.2 15:33:37 10° SSE 15:38:06 50° ENE 15:42:37 10° N
Landsat 7 4.1 15:40:34 10° SE 15:44:58 44° ENE 15:49:23 10° N
COSMO-SKYMED 1 4.2 15:43:24 10° ENE 15:45:29 14° E 15:47:35 10° ESE
Lacrosse 4 Rocket 3.1 15:44:02 10° WSW 15:47:37 29° WNW 15:51:12 10° N
IRS-1C 4.2 15:46:55 10° SSE 15:52:05 55° ENE 15:57:16 10° N
SPOT 1/Viking Rocket 4.5 15:48:52 10° ESE 15:53:05 26° ENE 15:57:19 10° NNE
CENTAUR R/B 3.6 15:48:23 10° WSW 15:53:23 35° NW 15:59:30 10° NNE
IGS 5A 4.0 15:50:11 10° S 15:54:03 59° W 15:57:58 10° NNW
AQUARIUS 4.5 15:51:41 10° SE 15:55:48 41° ENE 15:59:58 10° N
MOS 1 Rocket 3.8 15:51:29 10° SE 15:55:49 40° ENE 16:00:25 10° N
ISS -0.5 15:54:53 10° W 15:57:01 16° SW 15:59:09 10° S
ARIANE 5 R/B 2.5 15:52:11 10° SSE 15:57:07 61° ENE 16:02:07 10° N
Cosmos 2098 Rocket 2.7 15:56:18 10° S 15:59:42 56° E 16:03:45 10° NNE
Cosmos 2297 Rocket 3.1 15:57:07 10° N 16:01:53 27° ENE 16:06:36 10° ESE
Cosmos 1758 Rocket 3.6 15:57:47 10° N 16:02:01 52° E 16:06:11 10° SSE
Cosmos 773 Rocket 4.4 16:00:44 10° N 16:05:35 38° ENE 16:10:26 10° SE
Cosmos 1656 3.7 16:04:53 10° SSW 16:10:27 87° WNW 16:16:09 10° NNE
NOSS 2-2 (D) 4.3 16:17:11 10° WSW 16:20:33 34° NW 16:23:09 12° NNE
Cosmos 405 Rocket 3.0 16:20:25 10° NNW 16:23:38 56° W 16:26:46 10° S
NOSS 2-2 (E) 4.0 16:20:36 10° SW 16:24:06 41° NW 16:26:26 15° NNE
SJ-6F 4.2 16:20:41 10° SSE 16:24:36 77° ENE 16:28:35 10° N
Cosmos 1980 Rocket 3.7 16:22:21 10° SE 16:25:21 17° ESE 16:25:21 17° ESE
Cosmos 1626 Rocket 4.0 16:23:06 10° NNW 16:27:23 63° W 16:31:37 10° S
Cosmos 1606 Rocket 3.7 16:26:20 10° SSE 16:30:32 49° E 16:33:46 16° NNE
Helios 1A Rocket 3.1 16:30:55 33° E 16:30:55 33° E 16:33:59 10° SSE
Okean 1-7 Rocket 3.7 16:29:37 10° N 16:33:53 48° E 16:38:06 10° SSE
Cosmos 1461 2.8 16:30:59 10° SSW 16:34:44 55° ESE 16:35:59 36° ENE
Resurs 1-3 3.9 16:31:44 10° SE 16:35:43 39° ENE 16:39:43 10° N
Cosmos 2360 4.4 16:30:38 10° SSW 16:36:19 73° WNW 16:42:03 10° NNE
ARIANE 6 FM1 Upper Stage 4.0 16:32:43 10° NW 16:36:28 40° WSW 16:40:17 10° S
H-2A R/B 3.3 16:34:39 10° SSW 16:36:31 16° SSE 16:37:53 14° SE
NOSS 3-2 (C) 2.9 16:33:22 10° SSW 16:38:11 89° ESE 16:41:55 21° NNE
CZ-4C R/B 3.5 16:34:07 10° NNW 16:40:43 37° NE 16:44:46 24° E
BlueWalker 3 3.2 16:38:11 10° NNW 16:40:31 23° N 16:40:31 23° N
NOSS 3-2 (A) 4.4 16:37:29 10° WSW 16:41:57 33° NW 16:47:02 10° NNE
IRS-P3 4.3 16:37:11 10° S 16:42:29 73° WSW 16:47:48 10° NNW
Cosmos 1503 Rocket 4.0 16:40:16 10° SSW 16:45:32 86° WNW 16:49:52 15° NNE
Cosmos 2263 Rocket 4.2 16:43:31 10° NNE 16:44:07 12° NNE 16:44:07 12° NNE
IRAS Rocket 4.3 16:42:18 10° SE 16:47:37 52° ENE 16:52:55 10° N
NOSS 2-3 (E) 3.9 16:47:08 10° S 16:50:07 35° SE 16:50:07 35° SE
Cosmos 1354 Rocket 3.9 16:45:45 10° S 16:50:59 73° ESE 16:53:57 27° NNE
SKYMED 2 3.9 16:47:00 10° N 16:51:19 65° WNW 16:55:35 10° SSW
Cosmos 1933 3.2 16:47:36 10° S 16:51:26 82° W 16:53:31 26° N
Cosmos 2227 Rocket 3.2 16:47:42 10° N 16:51:16 27° NE 16:51:16 27° NE
Spot 4 Rocket 3.9 16:48:13 10° SSE 16:53:16 70° ENE 16:58:22 10° N
NOSS 2-3 (D) 4.1 16:51:41 10° S 16:54:29 34° SSE 16:54:29 34° SSE
Cosmos 1726 Rocket 3.5 16:53:54 10° S 16:58:30 76° E 17:00:32 33° NNE
BREEZE M DEB (TANK) 2.5 16:51:16 10° NW 16:59:00 60° NNE 16:59:19 57° NE
Cosmos 2151 3.8 16:58:41 10° NNW 17:02:42 50° W 17:06:42 10° SSW
Gbstr 26 Del rocket 2.6 17:02:16 10° SW 17:06:06 80° SSW 17:06:06 80° SSW
Cosmos 1697 Rocket 2.6 17:02:52 10° SSW 17:08:28 86° WNW 17:11:02 34° NNE
DMSP B5D1-3 4.4 17:11:31 63° E 17:11:46 64° ESE 17:16:46 10° S
YAOGAN 1 2.7 17:10:17 10° S 17:14:30 69° WSW 17:18:45 10° NNW
PSLV R/B 4.3 17:15:01 10° S 17:21:33 21° NNW 17:23:00 10° NNW
COSMO-SKYMED 1 3.5 17:19:06 25° NNW 17:20:59 42° WNW 17:24:52 10° SW
SL-19 R/B 4.3 17:19:43 10° S 17:24:55 73° WSW 17:30:22 10° NNW
Cosmos 1607 3.8 17:22:47 10° NNW 17:29:04 87° ENE 17:30:36 55° SE
NOAA 6 4.2 17:30:10 10° S 17:35:15 70° WSW 17:40:22 10° NNW
USA 238 DEB 3.4 17:31:06 10° SSW 17:36:31 68° SSE 17:36:31 68° SSE
USA 238 3.4 17:31:12 10° SSW 17:36:34 67° SSE 17:36:34 67° SSE
Cosmos 724 4.3 17:32:25 10° NNW 17:38:26 76° WSW 17:39:24 62° S
USA 215 4.2 17:45:58 32° N 17:45:58 32° N 17:50:17 10° NNW
Cosmos 2297 Rocket 3.3 17:40:43 10° NW 17:46:00 41° WSW 17:51:15 10° S
Cosmos 1980 Rocket 3.3 18:03:35 10° SW 18:07:09 38° SW 18:07:09 38° SW
CZ-4C R/B 3.5 18:21:58 10° NW 18:29:26 59° WSW 18:29:51 59° SW
Cosmos 2227 Rocket 4.4 18:31:31 10° NW 18:33:08 18° NW 18:33:08 18° NW
